Regional Weather Roundup
Issued by NWS Green Bay, WI

Home | Current Version | Previous Version | Graphics & Text | Print | Product List | Glossary Off
Versions: 1 2 3 4 5 6 7 8 9 10 11 12 13 14 15 16 17 18 19 20 21 22 23 24 25 26 27 28 29 30 31 32 33 34 35 36 37 38 39 40 41 42 43 44 45 46 47 48 49 50

000
ASUS43 KGRB 222000
RWRGRB

NORTH-CENTRAL AND NORTHEAST WISCONSIN REGIONAL WEATHER ROUNDUP
NATIONAL WEATHER SERVICE GREEN BAY WI
200 PM CST WED FEB 22 2017

WIZ005-009-010>012-018-019-222100-
NORTH CENTRAL WISCONSIN

CITY           SKY/WX    TMP DP  RH WIND       PRES   REMARKS
IRONWOOD       CLOUDY    43  36  76 N3        29.60R
MANITOWISH WTR NOT AVBL
ARBOR VITAE    NOT AVBL
EAGLE RIVER    NOT AVBL
LAND O LAKES   CLOUDY    46  40  78 N6        29.58F
RHINELANDER    CLOUDY    53  40  61 NW7       29.56F
PHILLIPS       DRIZZLE   47  44  87 NE5       29.56S
ANTIGO         NOT AVBL
TOMAHAWK       NOT AVBL
MERRILL        NOT AVBL
$$

WIZ013-073-222100-
NORTHEAST WISCONSIN

CITY           SKY/WX    TMP DP  RH WIND       PRES   REMARKS
IRON MOUNTAIN  PTSUNNY   53  38  56 NE7       29.54R
MARINETTE      MOSUNNY   52  43  71 S7        29.55F
OCONTO         CLOUDY    60  44  55 SE5       29.53F
$$

WIZ017-030-035>037-045-222100-
CENTRAL WISCONSIN

CITY           SKY/WX    TMP DP  RH WIND       PRES   REMARKS
MEDFORD        NOT AVBL
WAUSAU         MOSUNNY   55  37  50 SW6       29.54S
MOSINEE        PTSUNNY   55  37  50 VRB3      29.56F
MARSHFIELD     CLOUDY    57  39  51 W8        29.55S
WISC RAPIDS    CLOUDY    58  37  45 W9        29.55F
STEVENS POINT  NOT AVBL
WAUPACA        SUNNY     69  38  33 W6        29.53F
SHAWANO        MOSUNNY   61  43  51 SW5       29.54F
CLINTONVILLE   SUNNY     61  43  51 W3        29.53F
WAUTOMA        SUNNY     67  42  40 SW13      29.53F
$$

WIZ038-039-048-051-222100-
FOX VALLEY

CITY           SKY/WX    TMP DP  RH WIND       PRES   REMARKS
NWS GREEN BAY  SUNNY     63  51  65 SW10      29.53F
APPLETON       PTSUNNY   64  43  45 SW13      29.52F
OSHKOSH        SUNNY     65  48  54 SW18G26   29.53F
FOND DU LAC    SUNNY     65  49  56 S15G21    29.54F
$$

WIZ022-050-052-222100-
EAST CENTRAL WISCONSIN

CITY           SKY/WX    TMP DP  RH WIND       PRES   REMARKS
EPHRAIM        NOT AVBL
WASHINGTON ISL FOG       40  40  99 S12       29.55F VSB<1/4
STURGEON BAY   PTSUNNY   51  45  79 S8        29.55F
MANITOWOC      NOT AVBL
SHEBOYGAN      SUNNY     69  46  43 S22       29.55F
$$

LMZ563-521-522-541>543-222100-
LAKESHORE

STATION/POSITION TIME  TEMP    WIND        PRES    VSBY  WAVE
                       AIR SEA DIR/SP/G                  HT/PER
                 (UTC) (F)     (DEG/KT/KT) (MB)    (MI)  (FT/S)
SHEBOYGAN LKSHOR 1900   42     170/ 22/ 23 1001.8F
NORTHPORT PIER   1940   44     170/  7/ 13 1001.4F
SISTER BAY LKSHO 1905   52     140/ 11/ 14   N/A
CHAMBERS ISLAND  1940   54     160/  4/  9 1000.3F
MENOMINEE LKSHOR 1930   42     130/  8/ 10  999.9F
$$




USA.gov is the U.S. government's official web portal to all federal, state and local government web resources and services.